Location: Dammartin
(48.9032°N, 1.6195°E)
Time: 11:04:10
(UTC+00:00)

Cosmos 1461 - Pass Details

Date: 03 February 2023
Orbit: 492 x 643 km, 65.0° (Epoch: 29 March)

Event Time Altitude Azimuth Distance (km) Brightness Sun altitude
Rises 19:10:00 0° 231° (SW) 2,761 7.2 -22.5°
Reaches altitude 10° 19:12:13 10° 236° (SW) 1,894 6.3 -22.9°
Maximum altitude 19:16:25 54° 314° (NW) 734 3.6 -23.6°
Enters shadow 19:17:37 41° 5° (N) 894 3.8 -23.8°
